Regional Weather Roundup
Issued by NWS

Home | Current Version | Previous Version | Graphics & Text | Print | Product List | Glossary On
Versions: 1 2 3 4 5 6 7 8 9 10 11 12 13 14 15 16 17 18 19 20 21 22 23 24 25 26 27 28 29 30 31 32 33 34 35 36 37 38 39 40 41 42 43 44 45 46 47 48 49 50
000
ASUS45 KBOI 010910
RWRID
WEATHER ROUNDUP FOR IDAHO
NATIONAL WEATHER SERVICE BOISE ID
300 AM MDT MON SEP 01 2014

NOTE: "FAIR" INDICATES FEW OR NO CLOUDS BELOW 12000 FEET
WITH NO SIGNIFICANT WEATHER AND/OR OBSTRUCTIONS TO VISIBILITY

IDZ012-014-011000-
SOUTHWEST IDAHO


CITY           SKY/WX    TMP DP  RH WIND       PRES   REMARKS
BOISE          CLEAR     56  38  50 SE5       30.00S
CALDWELL       CLEAR     54  39  58 W6        30.03R
MOUNTAIN HOME  CLEAR     53  41  64 W6        30.01R
$$

IDZ016-017-011000-
SOUTHCENTRAL IDAHO


CITY           SKY/WX    TMP DP  RH WIND       PRES   REMARKS
BURLEY         CLEAR     48  41  76 SW9       30.02R
JEROME         CLEAR     54  40  59 SW6       30.03S
TWIN FALLS     CLEAR     53  41  63 S13       30.03S
$$

IDZ019>023-011000-
SOUTHEAST IDAHO


CITY           SKY/WX    TMP DP  RH WIND       PRES   REMARKS
IDAHO FALLS    PTCLDY    53  39  59 SW13      30.00R
POCATELLO      CLEAR     58  32  37 SW16      30.01S
REXBURG        MOCLDY    52  38  58 S9        30.00R
$$

IDZ006-010-011-018-031-032-011000-
CENTRAL IDAHO MOUNTAINS


CITY           SKY/WX    TMP DP  RH WIND       PRES   REMARKS
MCCALL         CLEAR     40  35  83 NE3       30.06S
HAILEY         CLEAR     48  34  57 N10       30.06R
STANLEY          N/A     32  30  92 S5        30.13R WCI  27
SALMON         PTCLDY    55  39  54 SW6       30.02R
CHALLIS        PTCLDY    50  39  66 NW5       30.05R
$$

IDZ002-004-006-007-026-011000-
NORTHERN IDAHO


CITY           SKY/WX    TMP DP  RH WIND       PRES   REMARKS
LEWISTON       CLOUDY    62  42  47 CALM      30.01R
LOWELL           N/A     53  49  86 CALM      30.05R
COEUR D`ALENE  CLEAR     50  39  66 S3        29.99S
MULLAN PASS    PTCLDY    42  35  76 VRB7      30.07R
$$



USA.gov is the U.S. government's official web portal to all federal, state and local government web resources and services.